Weather in Oleksandropil

Ukraine / Dnipropetrovsk Region     48°35′55″N   36°33′10″E
temp.,
°C
wind,
m/s
gust,
m/s
humid.,
%
clouds,
%
prec.,
mm/h
press.,
hPa
HPBL,
m
24 june, thu
thu2400:00+22ne413758 0.0 1013234
03:00+20ne4127435 0.1 1013209
06:00+19ne51082100 2.4 1013172
09:00+26e6116393 2.4 1014456
12:00+30e61150100 0.0 1015803
15:00+28e5957100 0.0 1015724
18:00+29ene356185 0.0 1015202
21:00+23e3363100 0.0 101537
25 june, fri
fri2500:00+22ne22615 0.0 101415
03:00+21ne348199 0.0 101458
06:00+22nne41078100 0.0 1013199
09:00+24ne497989 0.0 1013275
12:00+30ene575274 0.0 1013861
15:00+32ene4747100 0.0 10121522
18:00+30ene365963 0.0 1011219
21:00+25ne477344 0.0 101191
26 june, sat
sat2600:00+23ne2276100 0.0 101120
03:00+21ne337813 0.0 101032
06:00+21ne348456 0.0 101087
09:00+27ene34625 0.0 1010415
12:00+31ene344888 0.0 1010915
15:00+32ene56445 0.0 10091584
18:00+31e3655100 0.0 1009295
21:00+25ese33659 0.0 100940
27 june, sun
sun2700:00+25ne2262100 0.0 100929
03:00+22nnw118018 0.4 100912
06:00+22ene238245 0.0 100873
09:00+27ene126492 0.0 1008375
12:00+30sse235497 0.0 10081062
15:00+32sw3351100 0.0 10081546
18:00+32s225570 0.0 10081033
21:00+25ssw337215 1.1 100830
28 june, mon
mon2800:00+21wsw5129279 1.4 1009359
03:00+20sse119795 1.4 100918
06:00+20s24935 0.0 1009135
09:00+25ssw457714 0.0 1009658
12:00+29ssw34603 0.0 10091359
15:00+30sw445385 0.3 10081668
18:00+25nw467856 1.9 1008415
21:00+22w3489100 4.5 100869